sim
Sign-in with your pilot id or email,
or register
Callsign
Passwort

Schedule Details

Flight Number: GEC8370
Departure: Frankfurt Airport (EDDF) at 16:35
Arrival: Mumbai Chhatrapati Shivaji International Airport (VABB) at 00:35
Route: Lufthansa Cargo Cargo Schedule. Enter filed route here before submitting Pirep.

Weather Information
Getting current METAR information for EDDF 191920Z 29005KT 240V310 CAVOK 18/11 Q1018 NOSIG
Getting current METAR information for VABB 191900Z 27007KT 3500 HZ FEW020 SCT025 28/25 Q1010 BECMG 3000 HZ

Schedule Frequency

Route Map